{"data":{"norad_id":66712,"epoch":"2026-05-24T18:32:10.886208Z","epoch_age_seconds":90720,"freshness":"FRESH","line1":"1 66712U 25276AY  26144.77234822  .00005548  00000+0  25985-3 0  9999","line2":"2 66712  97.4220 218.8805 0004655  74.1676 286.0072 15.20107642 26877","mean_motion":15.20107642,"eccentricity":0.0004655,"inclination_deg":97.422,"raan_deg":218.8805,"arg_perigee_deg":74.1676,"mean_anomaly_deg":286.0072,"bstar":0.00025985,"rev_number":2687,"period_min":94.730133591421,"perigee_km":502.31129037612,"apogee_km":508.71997097528,"semimajor_km":6883.6526306757,"source":"CELESTRAK","updated_at":"2026-05-25T13:38:13.347155Z"}}